Location: New Frontier Mobile Home Park
(32.8448°N, 116.9675°W)
Time: 23:06:59
(UTC+00:00)

Genesis I - Pass Details

Date: 14 July 2020
Orbit: 509 x 513 km, 64.5° (Epoch: 05 August)

Event Time Altitude Azimuth Distance (km) Brightness Sun altitude
Rises 03:46:33 0° 211° (SSW) 2,606 6.7 -9.7°
Reaches altitude 10° 03:48:42 10° 213° (SSW) 1,724 5.8 -10.1°
Maximum altitude 03:52:33 74° 298° (WNW) 533 3.4 -10.8°
Drops below altitude 10° 03:56:26 10° 25° (NNE) 1,733 6.0 -11.4°
Sets 03:58:37 0° 27° (NNE) 2,621 6.9 -11.8°
